Weather in Nizhnesortymsky

Russia / Khanty-Mansi Autonomous Okrug — Yugra     62°26′34″N   71°45′54″E
temp.,
°C
wind,
m/s
gust,
m/s
humid.,
%
clouds,
%
prec.,
mm/h
press.,
hPa
HPBL,
m
3 march, wed
wed323:00−15s91593100 0.1 1003455
02:00−15s81393100 0.1 1001441
05:00−16sse81394100 0.1 1000406
08:00−16sse81394100 0.1 999434
11:00−15sse81194100 1.0 998499
14:00−13s81193100 0.7 997605
17:00−12s71194100 1.1 997567
20:00−12s71194100 0.5 996446
4 march, thu
thu423:00−12s61194100 0.9 996357
02:00−11s61094100 0.6 994383
05:00−12s6109596 0.8 995218
08:00−14ssw469798 0.1 99584
11:00−9s589498 0.1 995283
14:00−6s71095100 0.4 994485
17:00−5s61095100 1.4 994483
20:00−7sse589698 0.4 994174
5 march, fri
fri523:00−7sse359699 0.8 993115
02:00−8sse3396100 0.4 99236
05:00−8se2396100 0.9 99236
08:00−8se2296100 0.6 99258
11:00−6sw1193100 1.0 992179
14:00−5w4694100 0.5 993421
17:00−7w5894100 0.8 996212
20:00−10w569494 0.0 99786
6 march, sat
sat623:00−13wsw459777 0.1 99932
02:00−14wsw349785 0.0 99920
05:00−15sw239786 0.1 100020
08:00−13ssw1196100 0.1 99921
11:00−11se119197 0.1 999159
14:00−9e119097 0.1 998228
17:00−11ne229698 0.3 99822
20:00−12n1296100 0.3 99921
7 march, sun
sun723:00−12nnw2396100 0.4 99923
02:00−13nnw3396100 0.3 100068
05:00−14nw3396100 0.6 100150
08:00−15nw349690 0.2 100272
11:00−14wnw339291 0.2 1003249
14:00−13wnw349099 0.0 1004368
17:00−16wnw229699 0.1 100420
20:00−17wnw229898 0.1 100520